NOAA 16 DEB, 41078

Orbit data source: Space-Track

NOAA 16 DEB, 41078 is space debris in SSO originally from a launch on Thu, 21 Sep 2000 UTC launched from the Air Force Western Test Range (AFWTR). Debris objects in space refer to the collection of defunct objects orbiting the Earth. Examples of debris include non-operational satellites, rocket bodies, and fragments generated from explosions, collisions, or faulty payload assembly.

Loading next visibility...
Identifier
41078, 2000-055AM
Orbit
SSO
Country
Flag of USUS
Related business
Manufacturer
Unknown
Mission
Spacecraft
Bus & Motor
Unknown
Mass
Unknown
Launch date (UTC)
2000-09-21 (25 years ago)
Launch vehicle
Unknown
Launch site
Air Force Western Test Range (AFWTR)
Object type
Payload
Rocket body
Debris
Shape & HBR
Unknown shape, 0.1 m
Radar Cross Section
Small (<0.1 m²)

Expand to show TLE details & history
Last TLE update: 10 hours ago

TLE from 10 hours ago
0 NOAA 16 DEB
1 41078U 00055AM  25286.84292018  .00000506  00000-0  57606-3 0  9995
2 41078  98.9077  60.1453 0287980 293.9563  63.1669 13.58218968489320
Epoch: 2025-10-13T20:13Z
TLE epoch observation values (Epoch: 2025-10-13T20:13:48.303Z)
Latitude
-0.00001°
Longitude
94.05415°
Altitude
953.519 km
Speed
7.42 km/s
True Right ascension
04h 00m 34s
True Declination
0° 00' 00"
Sunlit
Object was in full shadow at epoch
Visualization orbit readout
Latitude
Unknown
Longitude
Unknown
Altitude
Unknown
Speed
Unknown
Apparent Right ascension
Unknown
Apparent Declination
Unknown
Sunlit
N/A
Visualization observer readout
Local Sidereal Time
00:31:27
Azimuth
Unknown
Elevation
Unknown
Doppler factor
Unknown
Orbital elements
Apogee altitude
1,253.03 km
Perigee altitude
825.809 km
Semi-major axis
7,417.557 km
Eccentricity
0.0288
Inclination
98.9077°
RAAN
60.1453°
Arg. of periapsis
293.9563°
True anomaly
66.15882°
Mean anomaly
63.1669°
Eccentric anomaly
64.65812°
Mean motion
3.39744 °/min
Orbital period
105.96 mins
BSTAR
0.00057606
Loading maneuver chart data...
Computing Atmospheric mass density...
Loading historical data...
Loading historical data...
Loading historical data...
Loading historical data...
Loading historical data...
Loading historical data...
Loading historical data...

Documentation

Showing up to 5 results
|